Regional Weather Roundup
Issued by NWS Columbia, SC

Home | Current Version | Previous Version | Text Only | Print | Product List | Glossary On
Versions: 1 2 3 4 5 6 7 8 9 10 11 12 13 14 15 16 17 18 19 20 21 22 23 24 25 26 27 28 29 30 31 32 33 34 35 36 37 38 39 40 41 42 43 44 45 46 47 48 49 50
000
ASUS42 KCAE 291210
RWRCAE
REGIONAL WEATHER ROUNDUP
NATIONAL WEATHER SERVICE COLUMBIA SC
800 AM EDT WED JUL 29 2015

NOTE: "FAIR" INDICATES FEW OR NO CLOUDS BELOW 12,000 FEET WITH NO
SIGNIFICANT WEATHER AND/OR OBSTRUCTIONS TO VISIBILITY.

NOT ALL STATIONS ARE QUALITY CONTROLLED BY THE NATIONAL
WEATHER SERVICE. USE DATA WITH CAUTION...ESPECIALLY
DEWPOINT OBSERVATIONS.

SCZ001>056-GAZ040-063>065-077-291300-
...UPSTATE SOUTH CAROLINA...

CITY           SKY/WX    TMP DP  RH WIND       PRES   REMARKS
ANDERSON       MOSUNNY   77  72  84 CALM      30.02R
6HR MIN TEMP:  74; 6HR MAX TEMP:  77;

SPARTANBURG      N/A     75  73  94 CALM      30.03R
CLEMSON        MOSUNNY   78  72  81 NE5       30.04R
6HR MIN TEMP:  76; 6HR MAX TEMP:  80;

GREENVILLE     SUNNY     76  71  85 NE3       30.05R
6HR MIN TEMP:  73; 6HR MAX TEMP:  79;

GREENWOOD      SUNNY     75  73  93 CALM      30.03R
6HR MIN TEMP:  72; 6HR MAX TEMP:  75;

GREER          FOG       75  73  93 N3        30.03R VSB 1
6HR MIN TEMP:  72; 6HR MAX TEMP:  75;

ROCK HILL      CLOUDY    75  73  93 CALM      30.03R
6HR MIN TEMP:  71; 6HR MAX TEMP:  75;

CHESTER        CLOUDY    75  73  94 CALM      30.03R FOG
LAURENS        PTSUNNY   73  73 100 CALM      30.03R


...CENTRAL SOUTH CAROLINA...

CITY           SKY/WX    TMP DP  RH WIND       PRES   REMARKS
COLUMBIA APT   MOSUNNY   78  72  81 E3        29.99R
6HR MIN TEMP:  76; 6HR MAX TEMP:  79;

COLUMBIA OWENS SUNNY     77  72  84 CALM      30.01R
6HR MIN TEMP:  76; 6HR MAX TEMP:  78;

DARLINGTON     MOSUNNY   75  70  83 SE5       30.02R
6HR MIN TEMP:  73; 6HR MAX TEMP:  75;

FLORENCE       MOSUNNY   77  72  84 CALM      30.00R
6HR MIN TEMP:  74; 6HR MAX TEMP:  77;

MCENTIRE ANGB  MOSUNNY   75  73  93 E3        29.99R
6HR MIN TEMP:  72; 6HR MAX TEMP:  76;

ORANGEBURG     PTSUNNY   77  72  84 E3        29.99R
6HR MIN TEMP:  75; 6HR MAX TEMP:  78;

SUMTER SHAW    CLOUDY    76  71  83 NE3       29.98R
6HR MIN TEMP:  75; 6HR MAX TEMP:  77; 6HR PCP: TRACE;

NEWBERRY       PTSUNNY   70  70 100 CALM      30.05R
AIKEN          PTSUNNY   73  70  88 CALM      30.04R
BARNWELL       FAIR      79  75  89 E3        29.99R
MANNING        FAIR      73  68  83 CALM      29.99S
CAMDEN         FAIR      75  72  88 CALM      30.01R
LANCASTER      PTSUNNY   75  75 100 SE3       30.02R
WINNSBORO      SUNNY     73  73 100 CALM      30.02R


...EASTERN AND COASTAL SOUTH CAROLINA...

CITY           SKY/WX    TMP DP  RH WIND       PRES   REMARKS
MYRTLE BEACH   SUNNY     77  70  78 N7        29.99S
N MYRTLE BCH   SUNNY     76  72  87 NE6       29.97F
6HR MIN TEMP:  72; 6HR MAX TEMP:  76;

CONWAY         FAIR      73  73 100 CALM      29.98F FOG
MARION         FAIR      75  72  88 CALM      29.99S
HARTSVILLE     CLOUDY    75  70  83 CALM      30.00S
FLORENCE       MOSUNNY   77  72  84 CALM      30.00R
6HR MIN TEMP:  74; 6HR MAX TEMP:  77;

DARLINGTON     MOSUNNY   75  70  83 SE5       30.02R
6HR MIN TEMP:  73; 6HR MAX TEMP:  75;

CHARLESTON APT MOSUNNY   78  73  84 NE5       29.98R
6HR MIN TEMP:  74; 6HR MAX TEMP:  78;

MOUNT PLEASANT FAIR      77  73  88 N5        29.98R
BEAUFORT       MOSUNNY   79  75  87 NE5       29.98R
6HR MIN TEMP:  75; 6HR MAX TEMP:  79;



...EASTERN GEORGIA...

CITY           SKY/WX    TMP DP  RH WIND       PRES   REMARKS
AUGUSTA BUSH F MOSUNNY   78  74  87 SE3       29.98R
6HR MIN TEMP:  73; 6HR MAX TEMP:  79;

AUGUSTA DANIEL MOSUNNY   78  73  84 SE6       30.00R
6HR MIN TEMP:  76; 6HR MAX TEMP:  82;

THOMSON        MOSUNNY   80  78  94 CALM      30.04R
6HR MIN TEMP:  77; 6HR MAX TEMP:  80;

WASHINGTON     FAIR      79  79 100 CALM      30.01R
CLAXTON        FAIR      77  75  94 CALM      29.98R
SYLVANIA       MOSUNNY   78  77  97 CALM      29.99R
6HR MIN TEMP:  76; 6HR MAX TEMP:  78;

STATESBORO     SUNNY     76  50  40 CALM      29.98R
6HR MIN TEMP:  73; 6HR MAX TEMP:  76;

SAVANNAH       PTSUNNY   79  75  87 NE7       29.98R
6HR MIN TEMP:  76; 6HR MAX TEMP:  79;



...SOUTHERN NORTH CAROLINA...

CITY           SKY/WX    TMP DP  RH WIND       PRES   REMARKS
CHARLOTTE      CLOUDY    76  70  82 S6        30.03R
6HR MIN TEMP:  72; 6HR MAX TEMP:  76;

MONROE         SUNNY     75  71  87 CALM      30.02R
6HR MIN TEMP:  71; 6HR MAX TEMP:  75;

WADESBORO      PTSUNNY   76  71  83 CALM      30.02R
6HR MIN TEMP:  74; 6HR MAX TEMP:  78;

ROCKINGHAM     PTSUNNY   75  71  87 CALM      30.02R
6HR MIN TEMP:  73; 6HR MAX TEMP:  77;

RUTHERFORDTON  CLOUDY    72  72  99 CALM      30.06R
6HR MIN TEMP:  70; 6HR MAX TEMP:  73;

ASHEVILLE      SUNNY     70  66  87 CALM      30.10R
6HR MIN TEMP:  67; 6HR MAX TEMP:  71;


$$


USA.gov is the U.S. government's official web portal to all federal, state and local government web resources and services.